EA3ANS-1 Weather Reports


Display with metric or nautical units.
time (UTC)temp
F
wind
direction
speed
MPH
gust
MPH
rain 1hr
in
rain 24hr
in
rain mn
in
humidity
%
barometer
mb
20240717230743 74 318 0.0 0.0 0.00 0.00 0.00 64
20240717225746 74 318 0.0 0.0 0.00 0.00 0.00 64
20240717224744 75 325 1.0 2.0 0.00 0.00 0.00 63
20240717223747 74 204 0.0 0.0 0.00 0.00 0.00 63
20240717222745 75 184 0.0 0.0 0.00 0.00 0.00 61
20240717221748 75 184 1.0 0.0 0.00 0.00 0.00 61
20240717220750 75 253 0.0 1.0 0.00 0.00 0.00 60
20240717215753 75 239 2.0 2.0 0.00 0.00 0.00 60
20240717214756 76 193 2.0 0.0 0.00 0.00 0.00 59
20240717213758 76 200 2.0 3.0 0.00 0.00 0.00 58
20240717212801 76 224 4.0 3.0 0.00 0.00 0.00 58
20240717211757 77 150 3.0 3.0 0.00 0.00 0.00 58
20240717210800 77 200 3.0 3.0 0.00 0.00 0.00 55
20240717205802 77 180 3.0 4.0 0.00 0.00 0.00 55
20240717204805 77 193 4.0 4.0 0.00 0.00 0.00 54
20240717203808 77 198 3.0 3.0 0.00 0.00 0.00 55
20240717202810 78 155 3.0 3.0 0.00 0.00 0.00 55
20240717201813 78 174 4.0 4.0 0.00 0.00 0.00 55
20240717200809 78 214 4.0 3.0 0.00 0.00 0.00 55
20240717195812 78 205 3.0 5.0 0.00 0.00 0.00 54
20240717194814 78 113 4.0 3.0 0.00 0.00 0.00 54
20240717193817 79 179 1.0 1.0 0.00 0.00 0.00 53
20240717192819 79 217 4.0 2.0 0.00 0.00 0.00 53
20240717191821 80 198 6.0 6.0 0.00 0.00 0.00 52
20240717190824 80 218 4.0 3.0 0.00 0.00 0.00 52
20240717185820 81 235 5.0 3.0 0.00 0.00 0.00 50
20240717184823 81 256 5.0 5.0 0.00 0.00 0.00 51
20240717183825 81 240 7.0 9.0 0.00 0.00 0.00 47
20240717182828 81 225 8.0 3.0 0.00 0.00 0.00 49
20240717181831 81 225 6.0 8.0 0.00 0.00 0.00 51
20240717180833 82 222 8.0 8.0 0.00 0.00 0.00 50
20240717175836 82 219 8.0 12.0 0.00 0.00 0.00 49
20240717174833 82 242 9.0 14.0 0.00 0.00 0.00 48
20240717173834 83 208 9.0 7.0 0.00 0.00 0.00 45
20240717172836 83 188 10.0 9.0 0.00 0.00 0.00 44
20240717171839 84 248 8.0 10.0 0.00 0.00 0.00 42
20240717170842 84 218 9.0 5.0 0.00 0.00 0.00 43
20240717165844 84 215 9.0 5.0 0.00 0.00 0.00 42
20240717164847 85 219 7.0 8.0 0.00 0.00 0.00 43
20240717163843 85 229 8.0 11.0 0.00 0.00 0.00 41
20240717162846 85 211 11.0 10.0 0.00 0.00 0.00 42
20240717161848 85 217 12.0 12.0 0.00 0.00 0.00 42
20240717160851 86 238 10.0 6.0 0.00 0.00 0.00 41
20240717155854 86 193 9.0 12.0 0.00 0.00 0.00 39
20240717154856 86 229 13.0 10.0 0.00 0.00 0.00 40
20240717153859 86 201 13.0 16.0 0.00 0.00 0.00 39
20240717152855 87 235 10.0 11.0 0.00 0.00 0.00 38
20240717151858 87 204 9.0 12.0 0.00 0.00 0.00 37
20240717150900 87 205 9.0 11.0 0.00 0.00 0.00 37
20240717145903 87 203 11.0 12.0 0.00 0.00 0.00 36
20240717144906 88 224 12.0 11.0 0.00 0.00 0.00 36
20240717143908 88 231 9.0 5.0 0.00 0.00 0.00 35
20240717142911 88 225 7.0 14.0 0.00 0.00 0.00 34
20240717141907 88 225 10.0 12.0 0.00 0.00 0.00 35
20240717140910 88 210 12.0 10.0 0.00 0.00 0.00 34
20240717135912 89 238 8.0 7.0 0.00 0.00 0.00 33
20240717134915 89 187 9.0 6.0 0.00 0.00 0.00 33
20240717133918 89 205 7.0 6.0 0.00 0.00 0.00 33
20240717132920 88 205 12.0 9.0 0.00 0.00 0.00 32
20240717131923 89 222 13.0 14.0 0.00 0.00 0.00 33
20240717130920 89 173 11.0 10.0 0.00 0.00 0.00 32
20240717125923 89 165 8.0 4.0 0.00 0.00 0.00 33
20240717124925 88 145 11.0 11.0 0.00 0.00 0.00 35
20240717123928 88 96 8.0 6.0 0.00 0.00 0.00 35
20240717122931 88 169 7.0 6.0 0.00 0.00 0.00 36
20240717121933 87 149 5.0 11.0 0.00 0.00 0.00 35
20240717120936 88 111 8.0 9.0 0.00 0.00 0.00 35
20240717114932 88 76 7.0 2.0 0.00 0.00 0.00 34
20240717113934 88 194 9.0 12.0 0.00 0.00 0.00 34
20240717112935 88 115 7.0 7.0 0.00 0.00 0.00 33
20240717111932 88 117 7.0 6.0 0.00 0.00 0.00 34
20240717110933 88 191 9.0 9.0 0.00 0.00 0.00 32
20240717105932 89 222 8.0 8.0 0.00 0.00 0.00 31
20240717104931 89 222 2.0 0.0 0.00 0.00 0.00 30
20240717103931 88 260 7.0 4.0 0.00 0.00 0.00 31
20240717102931 88 97 4.0 2.0 0.00 0.00 0.00 32
20240717101928 87 155 6.0 5.0 0.00 0.00 0.00 33
20240717100929 87 86 2.0 2.0 0.00 0.00 0.00 33
20240717095930 87 238 6.0 6.0 0.00 0.00 0.00 32
20240717094929 87 217 0.0 0.0 0.00 0.00 0.00 33
20240717093928 86 72 0.0 0.0 0.00 0.00 0.00 34
20240717092927 86 214 3.0 3.0 0.00 0.00 0.00 33
20240717091926 87 158 6.0 8.0 0.00 0.00 0.00 33
20240717090926 87 110 0.0 5.0 0.00 0.00 0.00 33
20240717085924 85 7 1.0 1.0 0.00 0.00 0.00 37
20240717084925 84 187 0.0 2.0 0.00 0.00 0.00 38
20240717083924 83 294 2.0 2.0 0.00 0.00 0.00 42
20240717082924 82 346 3.0 3.0 0.00 0.00 0.00 43
20240717081923 80 270 0.0 3.0 0.00 0.00 0.00 46
20240717080923 80 316 3.0 1.0 0.00 0.00 0.00 49
20240717075921 79 343 3.0 2.0 0.00 0.00 0.00 50
20240717074920 77 307 2.0 2.0 0.00 0.00 0.00 55
20240717073920 76 309 5.0 2.0 0.00 0.00 0.00 56
20240717072921 76 332 5.0 5.0 0.00 0.00 0.00 57
20240717071918 75 328 4.0 4.0 0.00 0.00 0.00 59
20240717070919 75 300 6.0 5.0 0.00 0.00 0.00 60
20240717065919 74 332 5.0 6.0 0.00 0.00 0.00 62
20240717064918 73 307 7.0 7.0 0.00 0.00 0.00 63
20240717063917 72 295 4.0 3.0 0.00 0.00 0.00 65
20240717062915 71 332 6.0 6.0 0.00 0.00 0.00 66
20240717061918 71 311 4.0 5.0 0.00 0.00 0.00 68
20240717060914 70 301 6.0 7.0 0.00 0.00 0.00 69
20240717055914 70 329 4.0 3.0 0.00 0.00 0.00 70
20240717054914 70 283 5.0 4.0 0.00 0.00 0.00 70
20240717053914 69 330 6.0 5.0 0.00 0.00 0.00 71
20240717052914 70 288 3.0 3.0 0.00 0.00 0.00 71
20240717051914 69 315 4.0 5.0 0.00 0.00 0.00 72
20240717050917 69 285 5.0 3.0 0.00 0.00 0.00 73
20240717045913 69 301 3.0 1.0 0.00 0.00 0.00 73
20240717044912 69 300 4.0 3.0 0.00 0.00 0.00 72
20240717043910 69 323 3.0 3.0 0.00 0.00 0.00 73
20240717042910 69 318 3.0 4.0 0.00 0.00 0.00 73
20240717041912 69 319 2.0 1.0 0.00 0.00 0.00 72
20240717040907 69 42 2.0 1.0 0.00 0.00 0.00 72
20240717035910 69 101 1.0 1.0 0.00 0.00 0.00 71
20240717034905 70 24 1.0 2.0 0.00 0.00 0.00 70
20240717033908 70 312 2.0 3.0 0.00 0.00 0.00 71
20240717032906 70 267 3.0 3.0 0.00 0.00 0.00 70
20240717031904 70 357 2.0 3.0 0.00 0.00 0.00 70
20240717030907 70 330 4.0 4.0 0.00 0.00 0.00 69
20240717025904 70 316 5.0 5.0 0.00 0.00 0.00 70
20240717024906 70 294 3.0 4.0 0.00 0.00 0.00 70
20240717023903 70 222 2.0 0.0 0.00 0.00 0.00 69
20240717022902 70 284 4.0 3.0 0.00 0.00 0.00 69
20240717021902 70 314 3.0 4.0 0.00 0.00 0.00 70
20240717020901 70 352 1.0 0.0 0.00 0.00 0.00 69
20240717015901 70 150 2.0 0.0 0.00 0.00 0.00 69
20240717014902 69 75 0.0 0.0 0.00 0.00 0.00 69
20240717013904 70 75 0.0 0.0 0.00 0.00 0.00 68
20240717012901 70 75 2.0 2.0 0.00 0.00 0.00 68
20240717011859 70 113 1.0 1.0 0.00 0.00 0.00 67
20240717010857 71 115 1.0 1.0 0.00 0.00 0.00 66
20240717005857 71 323 0.0 0.0 0.00 0.00 0.00 66
20240717004858 71 302 3.0 4.0 0.00 0.00 0.00 67
20240717003901 71 266 2.0 1.0 0.00 0.00 0.00 67
20240717002903 71 246 1.0 1.0 0.00 0.00 0.00 66
20240717001855 71 104 0.0 0.0 0.00 0.00 0.00 65
20240717000853 71 120 1.0 1.0 0.00 0.00 0.00 65
20240716235853 71 197 1.0 1.0 0.00 0.00 0.00 65
20240716234853 72 131 0.0 0.0 0.00 0.00 0.00 64
20240716233852 72 194 2.0 2.0 0.00 0.00 0.00 64
20240716232851 73 208 2.0 2.0 0.00 0.00 0.00 64
20240716231853 73 224 0.0 0.0 0.00 0.00 0.00 63